Location: Sawmill Trailhead
(33.5800°N, 116.4497°W)
Time: 21:05:13
(UTC-07:00)

Amateur Radio Satellites - All Passes

Search period start: 20 September 2014 20:35
Search period end: 21 September 2014 20:35
Location: Sawmill Trailhead, 33.5800°N, 116.4497°W

Satellite Date Start Highest point End Downlink Frequencies (MHz)
Time Altitude Azimuth
PCSat 20 Sep 20:47:49 20:52:38 31° 57° (ENE) 20:57:24 145.825 MHz
SO-50 20 Sep 21:03:07 21:06:43 25° 111° (ESE) 21:10:23 436.795 FM
HO-68 20 Sep 21:25:10 21:32:12 64° 257° (WSW) 21:39:18 435.675 MHz FM
KITSAT 1 20 Sep 21:40:49 21:44:27 13° 321° (NW) 21:48:07 435.175 FM
FUNcube-1 20 Sep 21:44:31 21:48:14 28° 71° (ENE) 21:52:03 145.950 - 145.970 MHz USB
Oscar 11 20 Sep 21:50:27 21:54:48 90° 258° (WSW) 21:59:12 145.825 FM, Beacon 2401.500 USB
Sapphire 20 Sep 22:03:51 22:09:11 58° 248° (WSW) 22:14:28 437.095 MHz 1200 baud AX-25 AFSK
UKube-1 20 Sep 22:09:00 22:12:58 35° 261° (W) 22:16:57 145.840 MHz, 145.915 MHz
PCSat 20 Sep 22:31:17 22:35:55 29° 252° (WSW) 22:40:31 145.825 MHz
UOSAT-12 20 Sep 22:34:18 22:37:16 17° 108° (ESE) 22:40:15 437.025 FM, 437.400 FM
Oscar 10/S400 20 Sep 22:40:13 23:21:08 67° 200° (SSW) 09:11:12 145.825 - 145.975 CW/USB, Beacon 145.810 USB
SO-50 20 Sep 22:43:17 22:47:07 28° 306° (NW) 22:51:03 436.795 FM
FUNcube-1 20 Sep 23:21:16 23:24:35 21° 265° (W) 23:27:58 145.950 - 145.970 MHz USB
UOSAT-12 21 Sep 00:12:40 00:17:01 41° 303° (WNW) 00:21:28 437.025 FM, 437.400 FM
PANSAT 21 Sep 00:23:39 00:26:35 21° 163° (SSE) 00:29:31 not established
ISS 21 Sep 00:55:12 00:57:59 25° 130° (SE) 01:00:46 145.800 FM
Oscar 19 21 Sep 01:19:58 01:23:36 19° 94° (E) 01:27:12 437.125 CW, 437.150 USB
Saudisat 1A 21 Sep 01:24:38 01:28:26 28° 54° (NE) 01:32:14 436.775 MHz
AO-27 21 Sep 01:42:59 01:45:12 13° 92° (E) 01:47:24 436.795 MHz FM
RS-15 21 Sep 01:49:25 01:53:24 13° 98° (E) 01:57:21 29.354 - 29.394 USB, Beacon 29.352 USB
Oscar 16 21 Sep 01:57:56 02:02:58 50° 100° (E) 02:07:56 437.025 USB, Beacon 2401.1428
AO-Echo 21 Sep 01:59:20 02:03:12 23° 96° (E) 02:07:07 ?
PANSAT 21 Sep 02:02:48 02:06:21 36° 176° (S) 02:09:54 not established
ISS 21 Sep 02:31:49 02:34:37 25° 324° (NW) 02:37:26 145.800 FM
Gurwin Techsat 1B 21 Sep 02:42:27 02:46:45 25° 96° (E) 02:51:01 435.225 FM
ITAMSAT 1 21 Sep 02:44:26 02:49:34 57° 101° (E) 02:54:42 435.822 SSB
Uribyol 2 21 Sep 02:48:12 02:53:24 68° 102° (ESE) 02:58:36 436.500 FM
JAS-1B 21 Sep 02:56:27 03:02:09 82° 103° (ESE) 03:08:01 435.800 - 435.900 CW/SSB
Oscar 19 21 Sep 02:58:15 03:03:03 40° 288° (WNW) 03:07:48 437.125 CW, 437.150 USB
Saudisat 1A 21 Sep 03:04:20 03:07:52 24° 249° (WSW) 03:11:23 436.775 MHz
TMSAT-1 21 Sep 03:17:55 03:22:54 40° 99° (E) 03:27:52 436.925 FM
AO-27 21 Sep 03:19:53 03:25:02 61° 286° (WNW) 03:30:10 436.795 MHz FM
OPAL 21 Sep 03:21:46 03:24:01 13° 61° (ENE) 03:26:15 ?
KITSAT 1 21 Sep 03:37:26 03:44:35 33° 53° (NE) 03:51:41 435.175 FM
AO-Echo 21 Sep 03:37:37 03:41:55 32° 289° (WNW) 03:46:20 ?
Oscar 16 21 Sep 03:38:42 03:41:50 17° 294° (WNW) 03:44:58 437.025 USB, Beacon 2401.1428
PANSAT 21 Sep 03:42:45 03:46:13 32° 188° (S) 03:49:40 not established
RS-15 21 Sep 03:52:48 04:03:54 76° 115° (ESE) 04:14:46 29.354 - 29.394 USB, Beacon 29.352 USB
AO-7 21 Sep 04:21:42 04:29:15 38° 100° (E) 04:36:44 29.400 - 29.500 MHz
Gurwin Techsat 1B 21 Sep 04:21:58 04:26:41 33° 290° (WNW) 04:31:23 435.225 FM
ITAMSAT 1 21 Sep 04:25:42 04:28:32 15° 295° (WNW) 04:31:22 435.822 SSB
Uribyol 2 21 Sep 04:30:03 04:32:15 13° 296° (WNW) 04:34:27 436.500 FM
Uosat F 21 Sep 04:48:45 04:53:38 51° 100° (E) 04:58:30 435.120 FM
OPAL 21 Sep 04:57:06 05:02:14 69° 256° (WSW) 05:07:27 ?
TMSAT-1 21 Sep 04:58:37 05:02:30 21° 293° (WNW) 05:06:22 436.925 FM
PANSAT 21 Sep 05:23:35 05:25:55 16° 200° (SSW) 05:28:15 not established
JAS-2 21 Sep 05:23:51 05:28:30 21° 96° (E) 05:33:29 435.800 - 435.900 CW/SSB, 435.910 FM
KITSAT 1 21 Sep 05:32:28 05:40:09 50° 250° (WSW) 05:47:48 435.175 FM
SO-50 21 Sep 05:40:21 05:41:19 11° 45° (NE) 05:42:16 436.795 FM
STRAND 1 21 Sep 05:42:58 05:46:10 17° 66° (ENE) 05:49:22 ?
RS-15 21 Sep 06:08:10 06:17:16 29° 317° (NW) 06:26:23 29.354 - 29.394 USB, Beacon 29.352 USB
AO-7 21 Sep 06:14:21 06:21:57 42° 295° (WNW) 06:29:33 29.400 - 29.500 MHz
Hamsat 21 Sep 06:27:01 06:31:13 63° 100° (E) 06:35:22 145.90 MHz
Uosat F 21 Sep 06:29:02 06:31:57 16° 295° (WNW) 06:34:53 435.120 FM
MaSat-1 21 Sep 06:38:01 06:40:34 14° 101° (E) 06:43:08 437.345 MHz
JAS-2 21 Sep 07:07:32 07:13:38 57° 286° (WNW) 07:20:30 435.800 - 435.900 CW/SSB, 435.910 FM
SO-50 21 Sep 07:17:41 07:22:32 86° 62° (ENE) 07:27:25 436.795 FM
STRAND 1 21 Sep 07:20:04 07:24:56 47° 260° (W) 07:29:50 ?
MaSat-1 21 Sep 08:11:54 08:16:48 56° 295° (WNW) 08:21:41 437.345 MHz
SO-67 21 Sep 08:19:17 08:22:24 33° 286° (WNW) 08:25:31 435.3500 MHz FM
UOSAT-12 21 Sep 08:45:52 08:50:29 54° 59° (ENE) 08:55:01 437.025 FM, 437.400 FM
HO-68 21 Sep 08:57:45 09:03:59 31° 98° (E) 09:10:11 435.675 MHz FM
ISS 21 Sep 09:03:05 09:06:22 56° 42° (NE) 09:09:37 145.800 FM
Oscar 11 21 Sep 09:42:54 09:46:17 22° 96° (E) 09:49:39 145.825 FM, Beacon 2401.500 USB
UKube-1 21 Sep 10:00:49 10:05:04 50° 100° (E) 10:09:18 145.840 MHz, 145.915 MHz
UOSAT-12 21 Sep 10:28:01 10:30:06 13° 253° (WSW) 10:32:11 437.025 FM, 437.400 FM
ISS 21 Sep 10:42:35 10:42:40 10° 235° (SW) 10:42:45 145.800 FM
HO-68 21 Sep 10:45:03 10:51:41 42° 292° (WNW) 10:58:19 435.675 MHz FM
RS-15 21 Sep 10:48:11 10:54:49 17° 30° (NNE) 11:01:32 29.354 - 29.394 USB, Beacon 29.352 USB
Sapphire 21 Sep 10:58:52 11:03:37 33° 108° (ESE) 11:08:23 437.095 MHz 1200 baud AX-25 AFSK
FUNcube-1 21 Sep 11:13:08 11:17:46 79° 283° (WNW) 11:22:17 145.950 - 145.970 MHz USB
Oscar 11 21 Sep 11:18:50 11:22:23 25° 289° (WNW) 11:25:54 145.825 FM, Beacon 2401.500 USB
PCSat 21 Sep 11:24:58 11:30:18 65° 113° (ESE) 11:35:40 145.825 MHz
UKube-1 21 Sep 11:39:08 11:40:47 12° 294° (WNW) 11:42:27 145.840 MHz, 145.915 MHz
Oscar 19 21 Sep 12:33:15 12:36:54 20° 67° (ENE) 12:40:34 437.125 CW, 437.150 USB
Sapphire 21 Sep 12:42:22 12:46:59 28° 304° (WNW) 12:51:38 437.095 MHz 1200 baud AX-25 AFSK
AO-27 21 Sep 12:57:37 13:00:11 14° 64° (ENE) 13:02:45 436.795 MHz FM
RS-15 21 Sep 12:59:03 13:10:05 61° 57° (ENE) 13:21:32 29.354 - 29.394 USB, Beacon 29.352 USB
AO-Echo 21 Sep 13:09:23 13:12:39 19° 68° (ENE) 13:15:54 ?
Oscar 16 21 Sep 13:10:52 13:15:50 49° 73° (ENE) 13:20:50 437.025 USB, Beacon 2401.1428
PCSat 21 Sep 13:10:53 13:14:09 16° 309° (NW) 13:17:27 145.825 MHz
JAS-1B 21 Sep 13:35:09 13:43:32 54° 72° (ENE) 13:50:36 435.800 - 435.900 CW/SSB
ITAMSAT 1 21 Sep 13:58:30 14:03:32 58° 74° (ENE) 14:08:36 435.822 SSB
Gurwin Techsat 1B 21 Sep 13:59:47 14:04:09 27° 69° (ENE) 14:08:32 435.225 FM
Uribyol 2 21 Sep 14:02:04 14:07:11 67° 75° (ENE) 14:12:20 436.500 FM
Oscar 19 21 Sep 14:11:00 14:15:53 42° 261° (W) 14:20:49 437.125 CW, 437.150 USB
AO-27 21 Sep 14:34:02 14:39:08 60° 259° (WSW) 14:44:15 436.795 MHz FM
TMSAT-1 21 Sep 14:34:45 14:39:42 43° 72° (ENE) 14:44:40 436.925 FM
AO-Echo 21 Sep 14:46:49 14:51:09 35° 262° (W) 14:55:28 ?
Oscar 16 21 Sep 14:52:15 14:55:23 16° 266° (W) 14:58:32 437.025 USB, Beacon 2401.1428
RS-15 21 Sep 15:12:16 15:21:48 34° 254° (WSW) 15:31:44 29.354 - 29.394 USB, Beacon 29.352 USB
AO-7 21 Sep 15:16:32 15:23:54 37° 64° (ENE) 15:31:14 29.400 - 29.500 MHz
JAS-1B 21 Sep 15:26:55 15:34:04 28° 262° (W) 15:40:23 435.800 - 435.900 CW/SSB
Saudisat 1A 21 Sep 15:28:14 15:31:12 18° 110° (ESE) 15:34:12 436.775 MHz
Gurwin Techsat 1B 21 Sep 15:39:19 15:43:57 31° 263° (W) 15:48:37 435.225 FM
ITAMSAT 1 21 Sep 15:40:56 15:43:20 13° 267° (W) 15:45:44 435.822 SSB
Uribyol 2 21 Sep 15:45:38 15:47:03 11° 268° (W) 15:48:27 436.500 FM
Uosat F 21 Sep 15:58:08 16:02:52 45° 72° (ENE) 16:07:37 435.120 FM
TMSAT-1 21 Sep 16:16:05 16:19:45 19° 266° (W) 16:23:26 436.925 FM
Saudisat 1A 21 Sep 17:06:26 17:10:29 35° 304° (NW) 17:14:33 436.775 MHz
AO-7 21 Sep 17:08:40 17:16:26 44° 259° (W) 17:24:15 29.400 - 29.500 MHz
OPAL 21 Sep 17:11:20 17:16:15 44° 101° (ESE) 17:21:03 ?
Hamsat 21 Sep 17:16:37 17:20:17 27° 72° (ENE) 17:23:58 145.90 MHz
JAS-2 21 Sep 17:17:04 17:21:51 36° 71° (ENE) 17:26:32 435.800 - 435.900 CW/SSB, 435.910 FM
Uosat F 21 Sep 17:38:48 17:41:49 16° 266° (W) 17:44:51 435.120 FM
KITSAT 1 21 Sep 18:01:09 18:08:24 38° 108° (ESE) 18:15:39 435.175 FM
MaSat-1 21 Sep 18:09:24 18:12:47 47° 252° (WSW) 18:15:40 437.345 MHz
SO-67 21 Sep 18:48:00 18:51:10 35° 75° (ENE) 18:54:20 435.3500 MHz FM
OPAL 21 Sep 18:51:14 18:54:43 19° 296° (WNW) 18:58:11 ?
Hamsat 21 Sep 18:52:55 18:56:11 21° 265° (W) 18:59:27 145.90 MHz
JAS-2 21 Sep 19:03:15 19:07:03 20° 265° (W) 19:10:48 435.800 - 435.900 CW/SSB, 435.910 FM
HO-68 21 Sep 19:24:34 19:28:31 16° 59° (ENE) 19:32:29 435.675 MHz FM
STRAND 1 21 Sep 19:34:26 19:39:36 82° 103° (ESE) 19:44:45 ?
Sapphire 21 Sep 19:52:16 19:54:43 13° 49° (NE) 19:57:09 437.095 MHz 1200 baud AX-25 AFSK
KITSAT 1 21 Sep 19:56:03 20:03:37 43° 304° (NW) 20:11:13 435.175 FM
PCSat 21 Sep 20:17:39 20:21:56 23° 54° (NE) 20:26:10 145.825 MHz
